User: anonymous   Login
Location: Hokitika
(42.7170°S, 170.9670°E)
Time: 09:56:35
(UTC+13:00)
Language:

Cosmos 1818 - Orbit

View from above orbital plane
View from above orbital plane
View from above satellite
View from above satellite

Ground track
Ground track

The orbit data is extracted from the following two-line orbital elements,

1 17369U 87011A   19321.89026377 -.00000101 +00000-0 -12847-6 0  9993
2 17369 065.0090 138.6776 0015610 254.1182 105.8182 14.31450293764837
Epoch (UTC): 17 November 2019 21:21:58
Eccentricity: 0.0015610
inclination: 65.0090°
perigee height: 776 km
apogee height: 798 km
right ascension of ascending node: 138.6776°
argument of perigee: 254.1182°
revolutions per day: 14.31450293
mean anomaly at epoch: 105.8182°
orbit number at epoch: 76483

The dashed part of the orbit path shows where the satellite is in the earth's shadow,  

DLR